Wind_Speed
6 7 7 9 11 14 15 16 16 15 15 14 14 15 17 17 15 12 13 13 12 12
5 7 9 12 13 15 15 15 15 14 16 17 17 17 18 17 16 14 15 15 14 15
7 8 11 12 13 13 14 14 15 15 15 15 16 17 17 18 17 17 18 17 17 17
8 9 9 9 10 12 13 13 13 13 13 13 14 16 17 19 18 19 19 18 18 20
6 7 8 9 11 11 12 11 11 11 12 12 13 15 17 19 20 20 20 21 21 22
6 7 9 10 11 10 12 12 11 11 11 12 13 14 16 18 20 21 22 23 23 23
6 8 8 9 10 11 11 12 12 13 13 14 14 15 16 17 18 20 21 22 23 24
7 7 8 9 11 12 12 12 12 14 14 14 15 16 15 16 18 19 21 22 23 23
9 9 10 11 12 13 13 13 14 15 15 15 15 14 15 17 20 21 21 23 23 22
10 11 12 13 13 14 14 15 16 16 16 17 17 17 17 18 20 20 22 22 22 22
11 12 14 14 15 16 16 17 18 18 18 19 20 17 17 19 21 21 21 20 20 21
12 14 15 15 15 16 18 19 20 19 21 21 22 18 19 17 20 21 20 18 18 18
14 14 16 17 18 18 19 20 21 23 22 21 21 18 17 16 19 20 19 18 16 14
15 16 17 18 19 20 20 21 23 23 23 21 19 19 17 18 17 17 18 18 16 13
Wind_Direction
263 278 285 292 293 293 294 292 287 281 280 268 265 260 265 270 270 269 266 269 269 269
260 275 288 293 297 300 300 297 294 284 273 268 267 262 263 266 271 273 270 270 267 263
271 283 289 300 307 310 309 305 299 291 281 275 269 265 262 265 266 263 263 264 264 265
284 298 310 317 317 310 309 311 304 297 288 279 270 266 263 264 268 266 265 263 262 260
311 310 313 312 311 319 319 317 312 305 296 286 275 271 266 265 264 263 264 265 261 261
301 300 307 309 313 316 318 316 315 305 299 296 290 281 275 272 272 272 270 268 264 264
293 300 306 307 311 315 314 314 310 306 301 295 292 290 287 283 281 279 276 273 269 265
284 291 299 305 311 315 316 315 313 307 307 305 300 299 294 287 284 283 281 278 273 269
291 298 307 305 306 309 308 308 307 308 309 309 309 309 299 295 297 296 291 287 282 277
291 292 294 296 298 301 305 308 307 310 310 310 309 309 303 302 301 297 292 286 281 276
281 285 294 298 300 305 306 307 308 308 308 306 308 311 304 304 304 300 294 287 280 273
281 287 293 296 300 302 304 307 307 309 307 307 306 306 302 301 305 301 296 292 286 277
296 294 296 298 302 306 306 305 305 305 305 306 304 308 299 291 297 297 299 297 290 278
302 302 302 303 303 305 304 303 302 303 304 302 295 294 288 291 293 290 292 289 290 284
Height
824 824 823 823 823 822 820 819 818 818 816 815 815 815 815 815 814 812 813 814 814 814
821 821 820 820 819 818 817 816 815 814 813 812 812 812 811 811 811 811 811 809 810 810
819 819 818 817 816 815 814 813 811 810 809 808 808 809 808 807 807 807 806 805 805 806
817 816 816 815 814 812 810 809 808 806 805 805 804 804 804 803 802 802 802 801 801 801
816 815 814 813 812 810 809 806 805 804 802 801 801 801 800 800 798 797 796 796 797 797
814 813 813 812 810 809 807 804 803 802 800 799 798 797 796 796 794 793 792 792 793 792
812 812 810 809 808 806 805 803 801 801 799 797 796 795 793 792 790 789 788 787 787 787
809 809 808 807 806 805 803 802 800 799 797 795 793 791 789 788 786 784 783 782 782 781
808 807 806 805 804 802 801 799 798 796 793 791 789 788 786 784 782 780 779 777 777 777
805 804 804 803 802 799 797 795 793 791 789 787 785 784 783 781 779 776 774 772 771 771
804 803 802 800 798 796 794 792 789 788 786 784 781 781 779 778 775 773 771 769 767 767
801 799 797 796 794 793 791 789 787 785 783 781 778 777 774 772 771 770 768 766 765 763
798 797 795 794 791 789 788 787 784 781 779 777 775 773 772 770 768 766 764 764 760 759
794 793 792 790 789 787 785 783 780 778 776 774 773 771 769 767 764 762 760 758 757 756